• In Deutschland
  • Länderverzeichnis
  • Für 7 Tage
  • Wassertemperatur
  • Satellitenkarten
  • Wetterkarte
  • Widgets
  • user-avatar
    Anmelden

    Stündliche Wetter Geretsried

    Heute, 19 August, Sonntag

    Zeit Temperatur Niederschläge Wind Luftdruck Luftfeuchtigkeit
    00:00 +18°C° 0,2 mm 1 m/S 713 mmHg 91%
    01:00 +18°C° 0 mm 1 m/S 713 mmHg 91%
    02:00 +18°C° 0,1 mm 1 m/S 713 mmHg 92%
    03:00 +18°C° 0,1 mm 1 m/S 713 mmHg 93%
    04:00 +16°C° 0,1 mm 1 m/S 713 mmHg 94%
    05:00 +18°C° 0 mm 1 m/S 713 mmHg 92%
    06:00 +19°C° 0 mm 1 m/S 713 mmHg 90%
    07:00 +20°C° 0 mm 1 m/S 713 mmHg 85%
    08:00 +22°C° 0 mm 1 m/S 714 mmHg 78%
    09:00 +24°C° 0 mm 1 m/S 714 mmHg 71%
    10:00 +26°C° 0 mm 1 m/S 714 mmHg 64%
    11:00 +27°C° 0,1 mm 1 m/S 714 mmHg 61%
    12:00 +28°C° 0,1 mm 2 m/S 714 mmHg 57%
    13:00 +28°C° 0,1 mm 2 m/S 713 mmHg 54%
    14:00 +28°C° 0,5 mm 2 m/S 713 mmHg 58%
    15:00 +28°C° 0,5 mm 2 m/S 713 mmHg 61%
    16:00 +27°C° 0,5 mm 2 m/S 713 mmHg 64%
    17:00 +26°C° 0,4 mm 1 m/S 713 mmHg 70%
    18:00 +24°C° 0,4 mm 1 m/S 712 mmHg 75%
    19:00 +21°C° 0,4 mm 0 m/S 712 mmHg 81%
    20:00 +22°C° 0,3 mm 1 m/S 713 mmHg 83%
    21:00 +21°C° 0,3 mm 1 m/S 713 mmHg 85%
    22:00 +20°C° 0,3 mm 1 m/S 713 mmHg 87%
    23:00 +19°C° 0,1 mm 1 m/S 713 mmHg 88%

    Morgen, 20 August, Montag

    Zeit Temperatur Niederschläge Wind Luftdruck Luftfeuchtigkeit
    00:00 +19°C° 0,1 mm 1 m/S 713 mmHg 90%
    01:00 +18°C° 0,1 mm 1 m/S 713 mmHg 91%
    02:00 +18°C° 0 mm 1 m/S 713 mmHg 91%
    03:00 +18°C° 0 mm 1 m/S 712 mmHg 92%
    04:00 +18°C° 0 mm 1 m/S 712 mmHg 93%
    05:00 +18°C° 0 mm 1 m/S 712 mmHg 91%
    06:00 +19°C° 0 mm 1 m/S 712 mmHg 89%
    07:00 +20°C° 0 mm 1 m/S 713 mmHg 88%
    08:00 +22°C° 0 mm 1 m/S 713 mmHg 80%
    09:00 +24°C° 0 mm 1 m/S 713 mmHg 73%
    10:00 +25°C° 0 mm 1 m/S 713 mmHg 65%
    11:00 +26°C° 0,2 mm 1 m/S 713 mmHg 63%
    12:00 +27°C° 0,2 mm 2 m/S 713 mmHg 62%
    13:00 +27°C° 0,2 mm 2 m/S 713 mmHg 60%
    14:00 +27°C° 0,3 mm 2 m/S 712 mmHg 62%
    15:00 +27°C° 0,3 mm 2 m/S 712 mmHg 64%
    16:00 +26°C° 0,3 mm 2 m/S 712 mmHg 66%
    17:00 +25°C° 0,3 mm 1 m/S 712 mmHg 72%
    18:00 +23°C° 0,3 mm 1 m/S 712 mmHg 79%
    19:00 +20°C° 0,3 mm 0 m/S 712 mmHg 85%
    20:00 +19°C° 0,1 mm 0 m/S 712 mmHg 87%
    21:00 +20°C° 0,1 mm 1 m/S 713 mmHg 89%
    22:00 +19°C° 0,1 mm 1 m/S 713 mmHg 92%
    23:00 +19°C° 0 mm 1 m/S 713 mmHg 92%

    übermorgen, 21 August, Dienstag

    Zeit Temperatur Niederschläge Wind Luftdruck Luftfeuchtigkeit
    00:00 +18°C° 0 mm 1 m/S 713 mmHg 93%
    01:00 +16°C° 0 mm 0 m/S 713 mmHg 94%
    02:00 +16°C° 0 mm 0 m/S 713 mmHg 94%
    03:00 +16°C° 0 mm 0 m/S 713 mmHg 95%
    04:00 +15°C° 0 mm 0 m/S 712 mmHg 95%
    05:00 +16°C° 0 mm 0 m/S 713 mmHg 93%
    06:00 +17°C° 0 mm 0 m/S 713 mmHg 92%
    07:00 +17°C° 0 mm 0 m/S 713 mmHg 90%
    08:00 +21°C° 0 mm 1 m/S 713 mmHg 82%
    09:00 +23°C° 0 mm 1 m/S 713 mmHg 75%
    10:00 +25°C° 0 mm 1 m/S 713 mmHg 67%
    11:00 +26°C° 0 mm 2 m/S 713 mmHg 64%
    12:00 +27°C° 0 mm 2 m/S 713 mmHg 61%
    13:00 +28°C° 0 mm 2 m/S 713 mmHg 58%
    14:00 +27°C° 0,4 mm 2 m/S 712 mmHg 61%
    15:00 +27°C° 0,4 mm 2 m/S 712 mmHg 64%
    16:00 +27°C° 0,4 mm 2 m/S 712 mmHg 67%
    17:00 +25°C° 0,5 mm 2 m/S 712 mmHg 73%
    18:00 +24°C° 0,5 mm 2 m/S 712 mmHg 79%
    19:00 +22°C° 0,5 mm 1 m/S 711 mmHg 85%
    20:00 +22°C° 0,5 mm 1 m/S 712 mmHg 87%
    21:00 +21°C° 0,5 mm 1 m/S 712 mmHg 89%
    22:00 +20°C° 0,5 mm 1 m/S 712 mmHg 91%
    23:00 +19°C° 0,3 mm 1 m/S 712 mmHg 92%

    22 August, Mittwoch

    Zeit Temperatur Niederschläge Wind Luftdruck Luftfeuchtigkeit
    00:00 +19°C° 0,3 mm 1 m/S 712 mmHg 93%
    01:00 +19°C° 0,3 mm 1 m/S 712 mmHg 93%
    02:00 +18°C° 0,1 mm 1 m/S 712 mmHg 93%
    03:00 +18°C° 0,1 mm 1 m/S 712 mmHg 94%
    04:00 +18°C° 0,1 mm 1 m/S 712 mmHg 94%
    05:00 +18°C° 0,1 mm 1 m/S 712 mmHg 92%
    06:00 +19°C° 0,1 mm 1 m/S 712 mmHg 91%
    07:00 +20°C° 0,1 mm 1 m/S 712 mmHg 89%
    08:00 +22°C° 0,1 mm 1 m/S 712 mmHg 81%
    09:00 +25°C° 0,1 mm 1 m/S 712 mmHg 72%
    10:00 +25°C° 0,1 mm 0 m/S 712 mmHg 64%
    11:00 +27°C° 0,7 mm 1 m/S 712 mmHg 64%
    12:00 +28°C° 0,7 mm 1 m/S 712 mmHg 63%
    13:00 +28°C° 0,7 mm 2 m/S 711 mmHg 63%
    14:00 +28°C° 1 mm 2 m/S 711 mmHg 66%
    15:00 +27°C° 1 mm 1 m/S 711 mmHg 68%
    16:00 +27°C° 1 mm 1 m/S 711 mmHg 70%
    17:00 +26°C° 1,1 mm 1 m/S 711 mmHg 75%
    18:00 +22°C° 1,1 mm 0 m/S 711 mmHg 80%
    19:00 +21°C° 1,1 mm 0 m/S 711 mmHg 85%
    20:00 +22°C° 0,9 mm 1 m/S 711 mmHg 86%
    21:00 +21°C° 0,9 mm 1 m/S 711 mmHg 87%
    22:00 +21°C° 0,9 mm 1 m/S 711 mmHg 89%
    23:00 +20°C° 0 mm 1 m/S 711 mmHg 89%

    23 August, Donnerstag

    Zeit Temperatur Niederschläge Wind Luftdruck Luftfeuchtigkeit
    00:00 +20°C° 0 mm 1 m/S 711 mmHg 90%
    01:00 +20°C° 0 mm 1 m/S 711 mmHg 90%
    02:00 +19°C° 0 mm 1 m/S 710 mmHg 90%
    03:00 +19°C° 0 mm 1 m/S 710 mmHg 91%
    04:00 +19°C° 0 mm 1 m/S 710 mmHg 91%
    05:00 +19°C° 0 mm 1 m/S 710 mmHg 90%
    06:00 +20°C° 0 mm 1 m/S 710 mmHg 89%
    07:00 +20°C° 0 mm 1 m/S 710 mmHg 88%
    08:00 +22°C° 0,1 mm 1 m/S 710 mmHg 80%
    09:00 +24°C° 0,1 mm 1 m/S 710 mmHg 73%
    10:00 +26°C° 0,1 mm 1 m/S 710 mmHg 65%
    11:00 +27°C° 0,6 mm 1 m/S 710 mmHg 63%
    12:00 +28°C° 0,6 mm 1 m/S 710 mmHg 62%
    13:00 +28°C° 0,6 mm 1 m/S 709 mmHg 60%
    14:00 +28°C° 1,5 mm 1 m/S 709 mmHg 65%
    15:00 +27°C° 1,5 mm 1 m/S 709 mmHg 70%
    16:00 +26°C° 1,5 mm 1 m/S 709 mmHg 75%
    17:00 +25°C° 1 mm 1 m/S 709 mmHg 80%
    18:00 +23°C° 1 mm 1 m/S 708 mmHg 84%
    19:00 +21°C° 1 mm 2 m/S 708 mmHg 89%
    20:00 +20°C° 0,1 mm 2 m/S 708 mmHg 89%
    21:00 +19°C° 0,1 mm 2 m/S 708 mmHg 90%
    22:00 +19°C° 0,1 mm 2 m/S 708 mmHg 91%
    23:00 +18°C° 0 mm 2 m/S 708 mmHg 91%

    24 August, Freitag

    Zeit Temperatur Niederschläge Wind Luftdruck Luftfeuchtigkeit
    00:00 +18°C° 0 mm 2 m/S 708 mmHg 90%
    01:00 +17°C° 0 mm 2 m/S 707 mmHg 90%
    02:00 +17°C° 0 mm 2 m/S 707 mmHg 90%
    03:00 +17°C° 0 mm 2 m/S 706 mmHg 89%
    04:00 +16°C° 0 mm 2 m/S 706 mmHg 89%
    05:00 +17°C° 0 mm 2 m/S 706 mmHg 87%
    06:00 +18°C° 0 mm 2 m/S 706 mmHg 86%
    07:00 +18°C° 0 mm 2 m/S 706 mmHg 85%
    08:00 +22°C° 0,2 mm 1 m/S 706 mmHg 77%
    09:00 +24°C° 0,2 mm 1 m/S 706 mmHg 69%
    10:00 +26°C° 0,2 mm 1 m/S 706 mmHg 61%
    11:00 +27°C° 0,4 mm 1 m/S 705 mmHg 60%
    12:00 +27°C° 0,4 mm 2 m/S 705 mmHg 59%
    13:00 +28°C° 0,4 mm 2 m/S 705 mmHg 57%
    14:00 +25°C° 1,5 mm 3 m/S 705 mmHg 69%
    15:00 +22°C° 1,5 mm 3 m/S 704 mmHg 80%
    16:00 +20°C° 1,5 mm 3 m/S 704 mmHg 91%
    17:00 +19°C° 4,8 mm 3 m/S 704 mmHg 93%
    18:00 +18°C° 4,8 mm 2 m/S 704 mmHg 95%
    19:00 +17°C° 4,8 mm 2 m/S 704 mmHg 97%
    20:00 +16°C° 3,2 mm 2 m/S 705 mmHg 97%
    21:00 +16°C° 3,2 mm 2 m/S 705 mmHg 97%
    22:00 +15°C° 3,2 mm 2 m/S 705 mmHg 97%
    23:00 +13°C° 2,3 mm 3 m/S 705 mmHg 97%
    Mehr zeigen